Location: Neuvy Saint Sepulchre
(46.5953°N, 1.8122°E)
Time: 11:55:00
(UTC+02:00)

ISS - Pass Details

Date: 26 April 2026
Orbit: 415 x 424 km, 51.6° (Epoch: 14 April)

Event Time Altitude Azimuth Distance (km) Brightness Sun altitude
Exits shadow 03:58:22 29° 88° (E) 793 -2.1 -23.4°
Drops below altitude 10° 04:00:18 10° 71° (ENE) 1,501 -0.2 -23.2°
Sets 04:02:26 0° 66° (ENE) 2,369 1.0 -23.0°
